Location: Krakow
(50.0830°N, 19.9170°E)
Time: 19:33:28
(UTC+01:00)

SR - Pass Details

Date: 08 February 2023
Orbit: 582 x 867 km, 66.7° (Epoch: 20 March)

Event Time Altitude Azimuth Distance (km) Brightness Sun altitude
Rises 20:02:36 0° 326° (NW) 2,891 ? -31.7°
Reaches altitude 10° 20:05:10 10° 338° (NNW) 1,953 ? -32.1°
Enters shadow 20:05:45 13° 343° (NNW) 1,759 ? -32.2°
Maximum altitude 20:08:57 28° 39° (NE) 1,112 - -32.7°
Drops below altitude 10° 20:12:39 10° 100° (E) 1,903 - -33.3°
Sets 20:15:07 0° 112° (ESE) 2,803 - -33.6°
